Overview Statistics Trail Chart Weather Telemetry Raw packets
 

This is the latest recevied weather packets stored in our database for station/object WX5KDM. If no packets are shown the sender has not sent any weather packets the latest 10 day(s).

<< 35 36 37 38 39 40 41 >>
Time Temp. Humidity Pressure Rain* Wind** Luminosity Snow
1788381529 37.22° C 43% 1016.2 hPa 0 mm - - -
1788381224 36.67° C 44% 1016.2 hPa 0 mm - - -
1788380924 36.67° C 44% 1016.1 hPa 0 mm - - -
1788380619 37.22° C 43% 1016.3 hPa 0 mm - - -
1788380316 37.22° C 44% 1016.5 hPa 0 mm - - -
1788380016 37.22° C 42% 1016.7 hPa 0 mm - - -
1788379711 36.67° C 41% 1016.7 hPa 0 mm - - -
1788379406 36.67° C 43% 1016.9 hPa 0 mm - - -
1788379102 36.11° C 44% 1016.8 hPa 0 mm - - -
1788378801 36.11° C 47% 1016.8 hPa 0 mm - - -
1788378496 37.22° C 46% 1017.1 hPa 0 mm - - -
1788378190 37.22° C 45% 1017 hPa 0 mm - - -
1788377886 37.22° C 44% 1016.8 hPa 0 mm - - -
1788377582 36.67° C 43% 1017.1 hPa 0 mm - - -
1788377280 36.67° C 43% 1017.1 hPa 0 mm - - -
1788376979 37.22° C 42% 1017.3 hPa 0 mm - - -
1788376679 37.22° C 42% 1017.4 hPa 0 mm - - -
1788376374 36.67° C 44% 1017.4 hPa 0 mm - - -
1788376069 36.67° C 44% 1017.6 hPa 0 mm - - -
1788375769 37.22° C 44% 1017.4 hPa 0 mm - - -
1788375465 36.67° C 43% 1017.3 hPa 0 mm - - -
1788375160 37.22° C 41% 1017.6 hPa 0 mm - - -
1788374856 37.22° C 43% 1017.7 hPa 0 mm - - -
1788374551 37.22° C 46% 1017.6 hPa 0 mm - - -
1788374247 36.11° C 45% 1017.8 hPa 0 mm - - -

* Rain latest hour (hover to see other rain measurements)
** Current wind speed in m/s (hover to see current wind gust speed)